IZ2OSD Weather Reports


time (UTC)temp
F
wind
direction
speed
knots
gust
knots
rain 1hr
in
rain 24hr
in
rain mn
in
humidity
%
barometer
mb
20260505024756 59 0.0 0.0 0.00 0.00 0.00 71 1011.6
20260505023753 59 0.0 0.0 0.00 0.00 0.00 71 1011.7
20260505022749 59 0.0 0.0 0.00 0.00 0.00 70 1011.8
20260505021746 59 0.0 0.0 0.00 0.00 0.00 68 1011.9
20260505020742 59 0.0 0.0 0.00 0.00 0.00 67 1011.8
20260505015734 59 292 0.0 0.9 0.00 0.00 0.00 66 1011.8
20260505014730 60 0.0 0.0 0.00 0.00 0.00 64 1012.1
20260505013725 60 0.0 0.0 0.00 0.00 0.00 64 1012.3
20260505012724 60 0.0 0.0 0.00 0.00 0.00 65 1012.4
20260505011723 60 315 0.0 1.7 0.00 0.00 0.00 65 1012.6
20260505010714 60 0.0 0.9 0.00 0.00 0.00 65 1012.7
20260505005710 60 0.0 0.0 0.00 0.00 0.00 65 1012.8
20260505004707 61 292 0.9 1.7 0.00 0.00 0.00 66 1013.2
20260505003658 61 0.0 0.0 0.00 0.00 0.00 67 1013.2
20260505002655 61 0.0 0.0 0.00 0.00 0.00 68 1013.4
20260505001711 61 0.0 0.0 0.00 0.00 0.00 69 1013.7
20260505000647 61 0.0 0.0 0.00 0.00 0.00 69 1013.7
20260504235644 61 0.0 0.0 0.00 0.00 0.00 70 1013.8
20260504234655 61 0.0 0.0 0.00 0.00 0.00 69 1014.1
20260504233631 60 0.0 0.0 0.00 0.00 0.00 69 1014.0
20260504232623 61 292 0.9 1.7 0.00 0.00 0.00 67 1014.3
20260504231638 61 0.0 0.0 0.00 0.00 0.00 66 1014.3
20260504230613 62 0.0 0.0 0.00 0.00 0.00 66 1014.0
20260504225610 61 0.0 0.0 0.00 0.00 0.00 66 1014.3
20260504224606 62 0.0 0.0 0.00 0.00 0.00 65 1014.5
20260504223557 62 0.0 0.0 0.00 0.00 0.00 65 1014.4
20260504222614 62 0.0 0.0 0.00 0.00 0.00 64 1014.7
20260504221544 62 0.0 0.0 0.00 0.00 0.00 64 1014.7
20260504220554 62 0.0 0.0 0.00 0.00 0.00 64 1014.8
20260504215530 63 0.0 0.0 0.00 0.00 0.00 64 1014.8
20260504214524 63 0.0 0.0 0.00 0.00 0.00 63 1014.8
20260504213521 63 0.0 0.0 0.00 0.00 0.00 63 1015.1
20260504212517 63 0.0 0.0 0.00 0.00 0.00 62 1015.3
20260504211042 62 0.0 0.0 0.00 0.00 0.00 60 1015.3
20260504210037 63 0.0 0.0 0.00 0.00 0.00 57 1015.1
20260504205036 63 315 0.0 0.9 0.00 0.00 0.00 55 1015.3
20260504204031 63 315 0.0 1.7 0.00 0.00 0.00 53 1015.3
20260504203023 64 315 0.0 1.7 0.00 0.00 0.00 51 1015.1
20260504202019 64 315 0.0 0.9 0.00 0.00 0.00 49 1014.8
20260504201013 64 315 0.9 1.7 0.00 0.00 0.00 49 1015.3
20260504200010 65 315 1.7 1.7 0.00 0.00 0.00 49 1015.1
20260504195008 65 315 0.9 1.7 0.00 0.00 0.00 51 1014.9
20260504194506 65 315 0.9 2.6 0.00 0.00 0.00 52 1015.0
20260504193459 65 315 0.9 1.7 0.00 0.00 0.00 52 1015.0
20260504192452 66 315 0.0 0.9 0.00 0.00 0.00 52 1014.9
20260504191509 66 315 0.9 1.7 0.00 0.00 0.00 51 1014.6
20260504190446 67 315 0.9 1.7 0.00 0.00 0.00 49 1014.5
20260504185457 67 315 0.9 2.6 0.00 0.00 0.00 50 1014.6
20260504184431 68 0.0 0.0 0.00 0.00 0.00 48 1014.3
20260504183348 68 0.0 0.0 0.00 0.00 0.00 47 1014.4
20260504182344 68 0.0 0.0 0.00 0.00 0.00 47 1014.4
20260504181339 69 0.0 0.0 0.00 0.00 0.00 46 1014.3
20260504180356 69 0.0 0.0 0.00 0.00 0.00 46 1014.5
20260504175355 69 0.0 0.0 0.00 0.00 0.00 45 1014.4
20260504174344 69 0.0 0.0 0.00 0.00 0.00 45 1014.4
20260504173320 69 0.0 0.0 0.00 0.00 0.00 44 1014.5
20260504172316 70 0.0 0.0 0.00 0.00 0.00 44 1014.4
20260504171314 70 0.0 0.0 0.00 0.00 0.00 44 1014.5
20260504170308 70 0.0 0.0 0.00 0.00 0.00 43 1014.4
20260504160236 71 112 2.6 3.5 0.00 0.00 0.00 44 1014.7
20260504150206 72 292 0.0 2.6 0.00 0.00 0.00 45 1015.1
20260504141158 72 292 0.9 1.7 0.00 0.00 0.00 42 1015.5
20260504140155 72 315 1.7 3.5 0.00 0.00 0.00 41 1015.5
20260504130133 72 292 1.7 2.6 0.00 0.00 0.00 42 1016.1
20260504120113 71 292 1.7 2.6 0.00 0.00 0.00 42 1016.4
20260504081428 70 292 0.0 1.7 0.00 0.00 0.00 39 1016.8
20260504080424 69 315 0.0 0.9 0.00 0.00 0.00 41 1016.8
20260504070351 68 292 0.0 0.9 0.00 0.00 0.00 42 1016.5
20260504050302 58 0.0 0.0 0.00 0.00 0.00 60 1016.0
20260504045300 57 0.0 0.0 0.00 0.00 0.00 59 1015.9
20260504044255 58 0.0 0.0 0.00 0.00 0.00 58 1015.5
20260504043246 57 0.0 0.0 0.00 0.00 0.00 60 1015.3
20260504042242 57 0.0 0.0 0.00 0.00 0.00 60 1015.7
20260504041233 57 0.0 0.0 0.00 0.00 0.00 60 1015.5
20260504040230 57 0.0 0.0 0.00 0.00 0.00 60 1015.5
20260504035225 57 0.0 0.0 0.00 0.00 0.00 61 1015.3
20260504034222 57 0.0 0.0 0.00 0.00 0.00 61 1015.5
20260504033218 57 0.0 0.0 0.00 0.00 0.00 61 1015.5
20260504032215 57 0.0 0.0 0.00 0.00 0.00 62 1015.5
20260504031211 57 0.0 0.0 0.00 0.00 0.00 63 1015.4
20260504030208 57 0.0 0.0 0.00 0.00 0.00 64 1015.6